User: anonymous   Login
Location: Unspecified
(0.0000°N, 0.0000°E)
Time: 07:46:32
(UTC+00:00)
Language:

UKube-1 - Orbit

View from above orbital plane
View from above orbital plane
View from above satellite
View from above satellite

Ground track
Ground track

The orbit data is extracted from the following two-line orbital elements,

1 40074U 14037F   20048.08621341  .00000224  00000-0  33973-4 0  9996
2 40074  98.4517 229.2031 0004905 135.6958 224.4662 14.84193531303758
Epoch (UTC): 17 February 2020 02:04:08
Eccentricity: 0.0004905
inclination: 98.4517°
perigee height: 612 km
apogee height: 619 km
right ascension of ascending node: 229.2031°
argument of perigee: 135.6958°
revolutions per day: 14.84193531
mean anomaly at epoch: 224.4662°
orbit number at epoch: 30375

The dashed part of the orbit path shows where the satellite is in the earth's shadow,  

DLR